Temp_Advection
nan nan nan nan nan nan nan nan nan nan nan nan nan nan nan nan nan nan nan nan nan nan nan nan nan nan nan nan nan nan nan nan nan nan nan nan nan nan nan nan nan nan nan nan nan nan nan nan nan
nan 0 -0 -0 -0 0 -0 0 -0 -0 -0 -0 0 0 -0 -1 -0 -1 -1 -0 -1 -1 -1 0 0 -0 -0 -0 -0 -0 0 -0 -0 0 0 0 0 0 0 0 0 0 0 -0 -0 -0 0 0 nan
nan -0 -1 -0 -0 -0 0 0 -0 -0 -0 -0 -0 -0 -0 -1 -0 -0 -0 -1 -1 -1 -1 -0 0 -0 -0 -0 -0 -0 -0 0 0 -0 0 0 0 0 0 -0 0 -0 -0 -0 0 0 0 -0 nan
nan -1 0 -0 1 0 0 0 -0 -0 -0 -0 -0 -1 -1 -0 0 -0 -0 -1 0 -0 -0 -0 -0 -0 -0 -0 -0 -0 -0 -0 0 -0 -0 -0 0 0 0 -0 0 -0 -0 -0 0 -0 -0 0 nan
nan -0 0 0 0 0 0 -0 -0 -0 -0 -0 -0 -0 -1 -0 0 0 -0 -1 -0 -0 0 0 0 0 0 0 -0 -0 -0 -0 -0 0 0 -0 0 0 0 0 -0 0 0 -0 -0 0 -0 -0 nan
nan 0 -1 -0 1 0 -0 -0 0 -0 -0 -0 0 -0 -1 -0 0 0 -0 -0 -0 -0 -0 0 0 0 0 -0 -0 -0 -0 -0 -0 -0 -0 0 -0 0 -0 0 -0 -0 -0 0 -0 -0 0 0 nan
nan 0 -1 0 -0 0 0 0 -0 -0 -0 0 0 0 0 -1 -0 -0 -0 -0 -0 0 -0 -0 0 0 0 -0 -0 -0 0 0 -0 -0 -0 -0 -0 -0 -0 0 0 -0 -0 -0 -0 0 0 0 nan
nan 0 -0 -0 -0 0 0 -0 0 0 -0 0 0 -1 0 -0 -0 -0 0 0 0 0 -0 -0 -0 0 0 0 -0 -0 -0 -0 -0 -0 -0 -0 -0 -0 -0 0 0 -0 -0 -0 -0 0 0 0 nan
nan -0 0 0 0 0 -0 0 -0 0 0 -0 -0 1 -1 -0 -0 -0 0 0 0 0 -0 -0 -0 -0 -0 0 0 0 0 0 0 0 -0 -0 -0 -0 0 -0 -0 -0 -0 -0 -0 0 0 -0 nan
nan 0 0 0 0 -0 -0 0 0 -1 -1 0 -0 -0 -0 -0 -0 -0 0 0 0 -0 0 -0 -0 0 0 -0 0 0 0 0 0 0 0 -0 -0 -0 -0 -0 -0 0 -0 0 0 0 0 -0 nan
nan 0 0 -0 -0 0 0 0 -0 2 -0 0 -1 -1 -0 -0 -0 0 -0 -0 -1 -0 0 -0 -0 -0 0 -0 -0 -0 -0 -0 -0 -0 0 -0 -0 -0 -0 -0 -0 0 -0 0 -0 0 0 0 nan
nan 0 -0 -0 0 -0 0 0 0 0 1 -0 -0 -0 -0 -0 -0 0 -0 -0 -0 0 -0 -0 -0 -0 -0 0 -0 -0 -0 -0 -0 -0 -0 -0 0 -0 -0 -0 -0 -0 -0 -0 0 0 0 0 nan
nan 0 0 0 0 0 0 -0 0 0 0 -0 -0 -0 -0 -0 -0 -0 -0 0 0 -0 -0 -0 -1 -0 0 0 0 0 -0 -0 -0 -0 -0 -0 -0 0 0 0 -0 -0 -0 0 0 0 0 0 nan
nan -0 0 0 0 -0 0 0 0 -0 -0 -0 -0 -0 -0 -0 -0 -1 -0 -0 -0 -0 -0 -0 -0 0 0 0 0 0 -0 -0 0 -0 0 0 0 0 -0 -0 -0 -0 0 -0 -0 0 -0 -0 nan
nan -0 -0 -0 0 0 0 -0 -0 -0 -0 -0 -0 -0 -0 -0 0 -1 -1 -0 -0 -0 -0 -0 0 -0 0 0 0 -0 0 -0 -0 0 0 0 0 0 -0 -0 -0 -0 0 -0 -0 -0 0 0 nan
nan 0 0 0 0 0 0 -0 -0 -0 -0 -0 -0 -0 -0 -0 0 -0 -1 -1 -1 -0 -0 -0 0 0 -0 0 -0 -0 0 0 -0 0 0 -0 0 -0 0 -0 -0 0 -0 -0 -0 -0 -0 0 nan
nan 0 0 0 -0 0 0 -0 -0 -0 -0 -0 -0 -1 -0 -0 -0 0 -0 -1 0 0 0 0 0 0 0 0 -0 0 -0 0 0 0 -0 -0 -0 -0 0 -0 0 0 -0 -0 0 -0 -0 -0 nan
nan -0 -0 -0 0 0 -0 -0 -0 -0 -0 0 -0 -0 -0 -0 -0 -0 0 0 0 0 0 0 0 0 0 0 0 0 0 -0 -0 -0 0 0 -0 -0 -0 0 0 0 -0 0 0 -0 -0 -0 nan
nan 0 -0 -0 0 0 -0 -0 -1 0 -1 -0 -0 -0 -1 -0 -1 -0 0 -0 -1 -0 -0 0 0 0 0 0 -0 -0 -0 -0 0 0 0 0 0 0 0 0 -0 -0 -0 0 -0 -0 -0 0 nan
nan 0 -0 -0 -0 0 -0 -0 -1 -0 0 -0 -0 -0 -0 -0 -1 -0 0 -0 -0 -1 -0 0 0 0 0 -0 -0 -0 -0 0 0 0 0 0 0 0 -0 0 -0 -0 -0 0 0 -0 -0 -0 nan
nan -0 0 -0 -0 -0 -0 -1 -1 0 0 -0 -0 -0 -0 -0 -0 -0 -0 -0 0 -0 0 0 0 0 0 0 -0 0 -0 -0 -0 0 0 -0 0 0 0 -0 0 0 0 0 0 -0 -0 -0 nan
nan -0 0 0 0 -1 -0 0 -1 -0 0 -0 0 -0 -0 -0 -0 -1 -1 -0 -0 0 0 0 0 0 -0 0 -0 0 -0 -0 0 -0 -0 0 0 -0 -0 -0 0 -0 -0 -0 0 0 0 -0 nan
nan -0 0 0 -0 -0 -0 -0 -0 -0 -0 0 -0 0 -0 -0 -0 -1 -1 -1 -0 0 0 0 0 0 0 0 -0 0 -0 -0 0 -0 -0 0 -0 0 0 -0 -0 -0 -0 -0 0 0 -0 -0 nan
nan 0 -0 -0 0 -0 -1 -0 -0 -0 -0 -0 -0 -0 0 -0 -0 -0 -1 -1 -0 -0 -0 -0 0 0 0 -0 0 0 0 0 0 0 0 -0 -0 0 -0 -0 0 -0 -0 0 0 -0 0 0 nan
nan 0 0 0 -0 -1 0 0 -1 0 -0 -0 0 0 0 -0 0 -0 -0 -1 -0 -0 0 -0 0 0 -0 -0 0 0 -0 0 0 0 0 -0 -0 -0 -0 0 0 -0 -0 -0 0 0 0 -0 nan
nan -0 0 0 -1 0 -0 -0 -0 -0 0 0 0 0 0 0 -0 -0 -0 -0 0 0 0 0 0 0 -0 -0 -0 -0 -0 0 -0 -0 -0 -0 -0 0 0 0 0 -0 -0 0 -0 -0 -0 -0 nan
nan -0 -0 0 -0 -0 -0 -0 -0 0 0 -0 -0 0 0 0 -0 -0 -0 0 -0 -0 -0 0 0 -0 -0 -0 -0 -0 -0 -0 -0 0 -0 -0 0 0 0 0 0 -0 0 -0 -0 -0 -0 0 nan
nan 0 0 0 1 -1 -1 0 -0 0 -0 -0 0 0 -0 0 0 -0 -0 -0 -0 -0 -0 0 0 -0 -0 -0 -0 -0 -0 -0 0 -0 0 -0 0 -0 0 0 -0 -0 -0 -0 -0 -0 -0 0 nan
nan 0 -1 -0 0 1 -0 0 0 -0 -0 -0 -0 0 0 0 0 0 -0 -0 -0 0 0 0 -0 -0 -0 -0 -0 -0 -0 -0 -0 0 -0 -0 0 0 0 0 0 -0 -0 -0 -0 -0 0 0 nan
nan nan nan nan nan nan nan nan nan nan nan nan nan nan nan nan nan nan nan nan nan nan nan nan nan nan nan nan nan nan nan nan nan nan nan nan nan nan nan nan nan nan nan nan nan nan nan nan nan
Wind_Speed
4 8 5 6 6 4 9 6 7 11 11 10 9 9 11 13 8 2 17 18 23 21 21 20 18 16 15 13 11 10 9 10 8 7 7 9 10 9 8 7 7 6 4 2 2 2 3 4 2
1 5 4 8 3 2 3 8 12 13 10 5 6 3 10 10 11 16 20 22 22 21 20 19 19 17 13 13 10 9 7 6 6 6 6 7 8 8 8 7 6 3 1 1 3 3 6 4 4
1 4 11 4 3 6 5 9 10 10 5 6 5 8 6 10 6 13 15 26 23 19 19 18 18 16 14 11 8 7 6 6 6 6 5 5 6 7 6 5 3 1 2 4 6 7 6 5 7
4 6 7 7 7 8 10 8 8 6 6 5 11 10 9 5 9 9 22 26 23 21 18 19 17 14 15 10 8 6 5 6 6 6 5 5 4 5 5 4 3 3 5 5 6 6 6 5 4
4 8 6 7 8 5 6 7 5 2 6 4 15 8 11 5 8 15 25 25 23 19 19 19 17 16 12 9 8 7 6 5 5 6 5 5 6 5 6 5 5 6 6 7 6 6 5 4 1
9 4 7 7 7 3 3 8 4 1 4 5 5 13 10 8 16 22 25 23 18 21 17 15 17 16 12 9 8 8 6 5 5 5 6 7 7 6 6 7 7 7 7 7 6 5 3 2 1
8 4 10 1 5 6 2 1 4 9 6 3 2 6 14 15 19 22 23 21 19 20 16 17 14 13 11 9 9 7 5 4 5 6 7 7 7 7 8 9 8 7 7 6 3 3 3 3 3
7 3 5 2 2 7 8 3 4 5 8 4 4 7 14 18 21 22 22 20 21 18 18 17 13 8 11 9 8 7 5 5 6 7 8 7 7 7 7 6 6 7 6 4 2 2 2 4 5
5 3 1 5 8 5 6 4 3 2 7 2 7 10 18 20 22 22 23 22 21 17 21 14 12 12 13 8 6 5 5 7 8 8 8 8 9 7 4 7 4 5 6 5 6 6 6 4 6
10 6 8 4 4 5 4 6 5 9 21 7 12 7 14 21 21 23 25 24 24 19 19 11 14 11 14 9 5 7 5 7 8 7 8 9 6 10 12 5 5 5 5 6 4 3 4 5 1
2 6 5 5 10 6 4 6 7 8 1 3 15 13 17 20 19 21 25 23 25 19 18 15 13 13 12 11 7 7 10 11 9 9 10 5 6 8 6 4 5 3 2 3 5 7 10 5 2
3 3 5 6 5 5 4 7 9 5 8 7 8 12 17 18 18 20 24 22 23 22 17 17 14 12 13 10 8 7 11 9 11 9 12 10 9 7 7 6 6 6 4 3 4 2 4 1 3
3 6 7 7 10 1 6 7 4 7 2 3 9 14 15 14 15 23 22 23 23 21 19 19 17 15 14 13 10 8 11 10 10 10 9 8 8 8 8 7 6 5 4 3 2 4 2 3 2
7 8 10 4 5 3 8 7 3 3 5 7 11 13 13 12 13 22 25 24 25 22 21 21 18 16 15 13 12 11 9 10 12 9 10 11 8 9 7 7 6 5 5 3 2 3 1 2 2
11 12 8 1 5 4 15 12 5 5 6 10 13 13 12 11 14 22 26 26 27 24 22 21 18 18 17 14 12 10 9 8 9 9 10 11 10 10 7 7 6 6 4 4 3 3 7 10 6
14 13 12 8 5 3 11 1 8 5 8 12 14 15 14 13 14 17 23 24 26 25 23 21 19 19 17 15 13 11 12 10 11 10 10 10 10 7 9 7 7 7 5 3 3 2 5 5 7
13 12 3 3 3 7 7 11 5 6 11 13 14 17 16 16 16 17 21 24 25 24 24 23 21 21 21 18 14 13 11 11 12 11 11 11 10 9 12 8 8 7 4 2 8 3 3 7 9
12 3 4 9 1 7 12 11 10 10 11 12 15 17 18 19 19 19 21 23 24 25 24 23 22 21 21 21 18 14 14 14 12 9 11 13 11 10 12 9 3 8 5 4 2 2 5 4 8
8 11 13 11 5 8 12 14 13 10 15 14 14 18 20 20 20 20 21 23 25 26 25 26 24 23 21 21 19 19 18 16 15 14 13 13 14 12 13 6 9 8 4 8 3 4 6 6 6
12 13 13 12 3 11 15 16 17 16 14 18 18 18 19 21 23 24 23 24 25 26 26 25 24 24 25 21 16 18 17 17 16 15 16 15 16 14 13 12 6 8 8 9 4 4 4 5 3
14 14 13 13 12 16 21 16 13 11 13 14 18 18 21 23 25 26 26 25 25 27 27 27 27 26 25 23 20 21 19 17 18 18 18 16 16 17 16 11 14 5 14 7 4 3 5 7 5
17 11 7 10 12 12 16 13 14 2 5 11 15 19 21 23 24 26 27 26 26 26 27 27 28 27 25 28 23 26 20 20 18 18 17 16 18 17 16 15 12 12 9 9 5 6 5 4 5
12 10 8 11 13 15 17 10 8 6 8 9 12 17 21 24 26 28 28 27 25 25 25 27 27 29 27 26 25 22 21 19 15 17 19 19 18 18 18 16 14 13 12 10 15 2 5 4 6
13 10 13 17 14 13 17 7 9 10 5 5 4 10 17 23 26 27 26 26 25 24 24 25 28 30 29 26 28 26 25 21 21 19 19 20 18 16 20 19 18 15 13 13 10 9 8 9 6
12 13 11 11 10 11 10 5 8 3 6 6 5 9 14 22 25 27 27 28 27 27 26 25 27 28 28 27 25 26 24 22 23 23 22 17 21 23 21 22 20 18 17 14 13 11 12 7 7
14 15 12 8 9 6 8 4 1 1 1 9 5 9 15 22 24 27 27 27 27 28 27 26 27 28 27 27 27 25 25 21 21 21 15 15 18 19 17 22 22 20 16 16 14 14 11 12 10
15 10 14 18 16 13 11 4 10 8 9 6 1 6 16 20 24 25 26 27 28 29 29 29 28 27 27 27 26 26 25 24 20 21 19 16 16 20 16 20 20 20 19 17 15 14 15 13 11
14 14 8 10 11 11 11 4 6 6 6 6 2 10 15 20 23 24 26 27 27 28 28 28 28 27 26 26 25 24 24 23 22 20 24 23 17 15 16 19 18 19 18 18 17 15 14 16 14
8 11 12 15 11 11 8 7 8 4 2 5 6 4 16 21 22 24 26 27 27 26 27 29 28 27 27 26 26 24 23 22 22 20 22 24 23 19 18 19 18 19 19 18 19 19 18 16 14
12 15 13 11 15 13 10 13 8 5 3 1 1 4 4 18 21 23 25 26 27 27 28 29 29 29 28 28 29 25 23 22 22 23 20 20 28 25 23 20 22 21 20 20 20 18 17 18 17
Wind_Direction
33 5 301 271 253 207 75 69 60 53 57 37 55 5 112 93 58 104 139 154 144 147 147 146 146 146 140 138 133 129 132 136 150 151 144 155 161 165 164 153 148 143 126 107 327 342 123 104 69
317 302 269 266 14 93 338 57 59 54 56 75 98 126 77 79 63 124 139 150 147 146 142 149 143 140 140 133 139 134 136 141 152 154 146 153 165 167 163 154 148 150 112 353 11 90 120 115 86
349 278 279 270 136 108 109 84 82 81 62 20 54 27 16 70 113 136 151 152 147 148 148 152 143 140 137 142 148 137 137 140 142 143 140 157 172 174 175 177 164 122 69 89 97 107 110 118 116
289 227 245 354 64 36 68 89 88 127 118 35 45 95 99 65 140 149 153 149 150 150 156 149 150 150 156 158 147 132 135 140 140 145 148 138 149 171 181 177 143 114 116 117 108 106 107 106 111
259 249 281 173 84 79 61 64 116 353 85 66 94 64 78 100 146 151 154 152 147 154 161 156 153 166 168 158 147 132 137 142 144 159 151 146 149 148 149 152 136 132 124 115 112 114 118 123 118
271 258 13 329 118 73 67 51 181 281 89 105 324 114 92 119 140 148 151 154 154 153 157 153 162 167 155 150 147 139 138 150 149 162 152 146 141 141 140 136 130 128 128 115 121 117 97 52 36
285 322 196 15 86 107 85 74 170 182 128 214 7 147 121 133 145 150 154 153 154 163 167 145 154 169 172 165 148 143 145 165 164 164 157 147 143 144 137 132 131 133 127 127 132 106 88 45 36
283 226 166 23 94 82 74 17 0 324 82 64 324 181 148 148 152 156 158 155 158 160 156 149 149 159 161 165 158 144 175 176 176 171 161 156 146 143 131 132 141 138 133 124 97 47 37 34 48
267 103 34 58 63 46 123 293 108 272 149 122 68 32 143 154 156 162 159 160 165 163 165 163 170 188 152 166 177 165 179 180 178 170 154 125 125 120 163 164 184 150 129 102 80 80 88 55 29
315 46 30 360 38 19 70 320 279 119 280 77 128 106 141 159 165 171 160 170 175 171 188 168 174 172 145 149 219 156 155 164 149 161 164 133 169 167 179 220 182 162 132 99 52 26 27 44 27
74 32 3 343 8 27 356 244 260 304 96 124 138 136 158 168 176 180 166 180 184 182 185 174 183 170 161 168 179 151 162 152 188 182 169 182 163 186 180 210 171 155 88 293 338 331 308 48 339
280 4 353 338 309 300 317 9 300 336 20 22 89 146 163 176 182 180 174 187 183 182 188 175 185 180 172 178 175 204 173 161 179 189 161 193 163 180 187 187 185 192 233 233 292 255 298 328 289
235 348 316 325 279 322 303 257 286 285 282 101 125 150 164 181 183 176 183 185 179 179 185 185 179 189 176 185 182 201 182 177 183 184 180 199 174 186 189 199 191 209 213 232 259 290 312 288 268
5 304 285 317 341 287 329 300 218 90 122 148 158 161 171 183 184 167 179 185 186 184 182 185 184 189 185 188 191 187 194 180 175 186 199 186 179 190 191 196 191 205 237 207 283 292 277 217 238
284 274 257 123 349 344 316 241 186 78 155 166 179 181 172 176 180 176 183 187 189 190 187 187 187 192 191 192 197 195 189 187 185 185 205 181 181 212 185 190 203 209 227 248 233 286 285 355 328
250 261 250 120 318 61 302 339 98 170 184 172 190 184 181 177 181 183 181 188 193 192 192 190 193 195 198 195 198 197 208 191 193 194 206 188 183 196 177 196 194 199 208 231 251 297 308 327 307
218 272 323 139 151 308 303 305 178 186 194 200 187 183 188 181 182 186 188 189 190 192 192 193 197 196 198 204 202 197 212 204 204 197 191 205 194 198 179 204 209 210 211 252 274 57 314 320 315
345 306 309 294 16 295 301 297 304 190 214 229 182 191 192 187 187 186 189 192 189 195 195 195 197 197 203 207 205 208 216 207 203 209 199 224 195 195 194 206 176 197 220 247 265 311 342 310 324
341 294 281 278 296 301 292 291 289 267 186 217 213 192 188 199 189 189 189 192 190 191 194 197 199 200 199 217 205 208 208 207 212 201 208 207 194 202 213 214 217 226 274 230 305 290 283 335 313
262 275 270 267 301 280 294 290 283 261 236 207 206 206 197 194 184 190 189 192 197 193 199 199 201 201 202 207 204 214 206 213 216 212 212 209 203 201 210 206 216 221 243 244 241 275 278 274 286
254 264 284 299 314 281 262 273 294 203 203 222 214 208 195 195 189 188 192 193 195 199 201 203 203 205 208 200 207 209 216 212 210 216 210 218 208 209 208 221 213 235 227 255 240 247 265 318 291
260 262 294 289 268 285 321 296 270 205 213 198 223 204 201 198 198 186 194 195 197 199 201 202 204 203 209 204 216 211 206 211 212 216 210 217 212 210 212 213 224 227 218 247 246 247 238 267 288
268 308 267 267 271 277 270 256 260 159 166 170 198 213 201 197 195 188 194 196 197 197 199 201 204 205 206 212 204 217 204 218 221 212 218 212 228 216 214 213 219 225 228 233 225 195 245 261 261
254 266 251 251 252 263 253 253 261 149 120 181 169 182 204 198 196 194 191 193 195 196 198 199 204 207 206 210 209 211 217 209 219 212 215 219 216 225 214 214 213 224 226 223 223 237 241 244 238
227 235 254 225 221 243 88 276 264 124 179 243 263 213 198 190 191 189 189 189 194 195 196 199 201 203 204 208 212 212 218 219 221 228 221 222 225 222 228 221 208 221 226 212 233 230 234 243 254
206 250 268 298 275 7 119 256 235 213 218 267 269 224 183 185 186 187 191 192 195 196 198 199 202 203 203 205 210 214 217 220 228 231 217 217 222 228 226 232 212 211 221 225 224 235 244 249 258
247 240 261 282 286 269 260 178 259 210 222 30 47 176 174 181 180 185 188 193 195 197 201 201 203 204 205 207 209 213 216 213 219 228 224 214 233 221 216 218 214 211 221 222 224 234 236 247 253
253 267 267 223 262 273 274 184 220 136 17 344 264 180 178 179 180 182 188 193 197 201 203 203 205 205 205 205 209 211 214 217 211 215 231 209 219 210 211 204 210 209 221 218 225 228 240 237 243
184 235 243 278 300 310 296 61 28 124 159 325 122 247 173 182 182 186 191 195 200 204 204 205 206 207 205 204 208 209 211 213 213 215 231 214 208 213 206 202 208 211 213 217 223 225 224 246 247
289 295 255 229 233 239 268 294 209 151 157 262 109 159 246 185 191 194 196 197 201 203 204 207 206 209 209 208 206 207 208 208 211 209 221 225 223 213 220 211 216 210 215 222 234 236 231 244 243
Height
1517 1516 1519 1517 1515 1500 1507 1500 1489 1494 1497 1501 1505 1503 1510 1517 1522 1538 1530 1534 1540 1543 1544 1547 1551 1554 1555 1558 1560 1561 1563 1565 1566 1568 1569 1571 1572 1574 1576 1577 1578 1578 1578 1578 1578 1578 1579 1580 1579
1521 1519 1518 1511 1523 1531 1518 1499 1502 1502 1506 1507 1507 1507 1508 1515 1523 1527 1532 1536 1542 1545 1548 1548 1552 1555 1558 1557 1561 1562 1564 1566 1567 1569 1570 1572 1573 1575 1577 1578 1579 1579 1579 1579 1579 1579 1580 1581 1581
1519 1519 1515 1503 1507 1519 1515 1501 1503 1508 1510 1508 1510 1511 1511 1520 1527 1530 1532 1538 1543 1547 1551 1550 1553 1556 1557 1559 1562 1563 1565 1566 1568 1570 1571 1573 1574 1576 1577 1578 1579 1579 1580 1581 1581 1581 1581 1582 1583
1522 1519 1514 1518 1508 1502 1505 1502 1506 1507 1510 1512 1511 1512 1522 1526 1528 1530 1535 1539 1544 1549 1552 1552 1554 1556 1558 1561 1563 1564 1566 1568 1569 1571 1572 1574 1575 1576 1577 1578 1579 1580 1582 1582 1582 1582 1582 1582 1583
1521 1513 1510 1511 1506 1503 1502 1504 1508 1509 1509 1512 1514 1513 1523 1528 1530 1532 1537 1541 1545 1550 1553 1553 1555 1558 1561 1563 1564 1565 1567 1569 1571 1572 1574 1575 1576 1577 1578 1579 1580 1581 1581 1582 1583 1583 1583 1583 1583
1517 1507 1527 1537 1510 1504 1502 1507 1509 1510 1509 1512 1515 1514 1524 1529 1531 1535 1539 1543 1547 1551 1553 1553 1556 1560 1562 1564 1564 1566 1568 1570 1571 1573 1575 1576 1576 1578 1579 1580 1581 1582 1582 1583 1584 1584 1584 1584 1584
1510 1505 1522 1504 1510 1506 1507 1504 1508 1507 1505 1515 1512 1521 1522 1529 1533 1537 1541 1545 1549 1551 1552 1555 1558 1560 1562 1564 1566 1567 1569 1571 1572 1574 1575 1576 1578 1579 1580 1581 1582 1582 1583 1584 1584 1585 1584 1584 1584
1510 1501 1507 1504 1507 1511 1506 1505 1506 1503 1507 1510 1512 1519 1521 1529 1533 1538 1542 1546 1550 1551 1553 1557 1561 1562 1562 1565 1566 1567 1569 1571 1573 1575 1576 1577 1579 1581 1582 1583 1583 1584 1584 1585 1584 1584 1584 1584 1585
1512 1526 1513 1507 1509 1506 1505 1505 1505 1504 1499 1505 1510 1512 1519 1529 1533 1538 1542 1547 1549 1553 1554 1558 1561 1561 1563 1567 1567 1568 1569 1572 1574 1576 1577 1579 1582 1583 1584 1583 1584 1584 1585 1585 1585 1585 1585 1585 1585
1509 1505 1510 1507 1505 1507 1507 1507 1503 1506 1508 1508 1509 1517 1523 1529 1533 1537 1541 1547 1550 1553 1556 1560 1561 1564 1564 1568 1568 1570 1571 1573 1575 1577 1578 1580 1581 1584 1585 1585 1585 1585 1586 1586 1586 1586 1586 1585 1584
1512 1514 1510 1507 1508 1507 1506 1504 1503 1501 1516 1506 1508 1515 1524 1529 1531 1536 1540 1547 1550 1553 1555 1559 1561 1564 1566 1570 1570 1570 1573 1574 1575 1578 1580 1581 1583 1586 1587 1586 1586 1586 1587 1587 1587 1587 1582 1583 1587
1510 1512 1512 1511 1510 1506 1504 1506 1501 1500 1503 1506 1507 1516 1523 1528 1529 1536 1540 1545 1549 1552 1555 1559 1560 1564 1566 1569 1570 1571 1572 1574 1576 1578 1579 1581 1583 1585 1587 1587 1589 1588 1589 1590 1588 1588 1586 1587 1587
1510 1511 1511 1509 1505 1504 1504 1503 1502 1501 1503 1508 1512 1518 1523 1526 1528 1534 1540 1545 1547 1551 1555 1558 1562 1564 1566 1568 1570 1571 1572 1575 1577 1577 1580 1581 1583 1585 1586 1587 1588 1589 1590 1590 1588 1585 1587 1586 1584
1512 1512 1509 1507 1505 1503 1503 1501 1499 1499 1503 1509 1515 1519 1521 1524 1527 1532 1539 1543 1547 1551 1553 1557 1561 1563 1566 1568 1569 1571 1572 1574 1575 1578 1579 1580 1583 1584 1586 1587 1588 1589 1588 1587 1588 1587 1585 1580 1581
1512 1509 1503 1506 1505 1503 1503 1497 1496 1500 1504 1508 1513 1516 1519 1523 1526 1529 1536 1541 1545 1549 1552 1556 1559 1562 1564 1566 1568 1570 1572 1574 1575 1577 1577 1579 1581 1582 1584 1587 1588 1588 1589 1587 1587 1586 1583 1576 1578
1507 1502 1504 1501 1505 1504 1501 1502 1495 1499 1502 1504 1508 1513 1517 1521 1525 1528 1533 1538 1543 1546 1550 1554 1557 1560 1562 1565 1566 1569 1570 1572 1574 1577 1577 1578 1580 1583 1583 1586 1587 1587 1588 1588 1587 1586 1584 1582 1577
1496 1505 1498 1500 1501 1502 1500 1501 1491 1496 1499 1497 1503 1508 1514 1518 1523 1527 1530 1533 1539 1543 1547 1551 1555 1557 1559 1563 1565 1567 1569 1571 1573 1574 1577 1576 1580 1582 1582 1585 1586 1586 1587 1587 1584 1582 1585 1583 1579
1501 1499 1500 1503 1496 1498 1499 1493 1487 1487 1493 1494 1496 1502 1509 1514 1519 1523 1527 1531 1534 1540 1545 1549 1552 1555 1557 1559 1562 1565 1566 1569 1571 1572 1576 1576 1580 1582 1582 1584 1584 1587 1587 1587 1586 1585 1585 1583 1581
1500 1507 1508 1498 1492 1501 1496 1493 1484 1480 1484 1490 1492 1496 1502 1509 1514 1520 1524 1528 1531 1536 1541 1545 1549 1552 1555 1555 1559 1562 1564 1567 1569 1571 1573 1574 1578 1581 1582 1581 1585 1586 1584 1586 1587 1587 1585 1583 1582
1503 1505 1503 1493 1493 1496 1493 1488 1479 1475 1474 1480 1486 1488 1495 1502 1507 1515 1520 1523 1527 1531 1537 1541 1545 1548 1551 1554 1556 1559 1562 1565 1567 1569 1571 1573 1575 1578 1581 1580 1583 1586 1586 1585 1588 1587 1584 1584 1581
1502 1502 1498 1500 1494 1492 1486 1485 1468 1465 1469 1474 1476 1482 1487 1494 1499 1510 1516 1519 1523 1527 1532 1536 1540 1543 1546 1550 1554 1556 1559 1562 1564 1566 1568 1571 1573 1575 1578 1580 1581 1582 1584 1584 1585 1586 1585 1583 1582
1502 1488 1493 1500 1504 1506 1478 1504 1469 1461 1464 1466 1471 1474 1481 1487 1494 1502 1511 1515 1519 1523 1528 1532 1536 1539 1543 1545 1549 1551 1555 1558 1561 1563 1565 1568 1569 1572 1576 1578 1580 1581 1584 1585 1584 1585 1584 1584 1583
1499 1490 1495 1496 1498 1494 1484 1484 1464 1458 1464 1464 1466 1468 1473 1480 1487 1495 1504 1510 1515 1520 1524 1528 1531 1535 1538 1540 1545 1547 1551 1555 1557 1560 1562 1564 1566 1568 1572 1575 1578 1580 1581 1583 1582 1579 1583 1583 1583
1491 1495 1495 1490 1490 1503 1474 1476 1464 1457 1459 1461 1461 1465 1468 1474 1481 1490 1498 1506 1511 1516 1520 1524 1527 1529 1534 1537 1541 1543 1547 1551 1553 1556 1558 1560 1564 1565 1566 1571 1574 1577 1579 1580 1581 1582 1583 1582 1581
1493 1496 1504 1502 1494 1489 1461 1479 1465 1450 1452 1456 1457 1459 1464 1469 1477 1486 1493 1500 1507 1511 1516 1520 1523 1525 1529 1534 1537 1540 1544 1546 1549 1551 1554 1557 1560 1562 1563 1566 1570 1573 1576 1577 1579 1580 1581 1581 1582
1491 1489 1494 1507 1487 1474 1461 1480 1459 1447 1451 1453 1454 1455 1460 1466 1474 1482 1489 1496 1503 1508 1512 1516 1519 1521 1525 1529 1532 1536 1539 1544 1546 1547 1550 1553 1556 1559 1560 1560 1566 1569 1572 1575 1577 1578 1579 1580 1580
1485 1489 1475 1483 1472 1479 1463 1453 1446 1444 1449 1450 1451 1454 1459 1464 1470 1478 1485 1492 1498 1503 1507 1511 1515 1518 1521 1525 1529 1532 1535 1538 1543 1544 1546 1550 1552 1553 1556 1559 1562 1566 1569 1571 1574 1576 1576 1577 1578
1480 1470 1487 1480 1508 1508 1470 1466 1462 1454 1451 1453 1453 1454 1458 1463 1469 1475 1482 1488 1494 1499 1503 1508 1511 1514 1517 1522 1525 1528 1531 1533 1538 1541 1541 1545 1549 1552 1554 1556 1559 1562 1565 1568 1570 1572 1573 1574 1575
1477 1482 1479 1472 1470 1484 1485 1473 1449 1454 1453 1455 1452 1455 1456 1462 1467 1473 1478 1484 1490 1495 1499 1503 1507 1510 1513 1517 1521 1524 1527 1530 1533 1537 1537 1540 1545 1548 1550 1552 1556 1558 1561 1563 1565 1567 1568 1570 1570
1464 1466 1462 1479 1484 1469 1469 1463 1438 1449 1450 1453 1455 1458 1459 1461 1465 1470 1475 1480 1485 1490 1494 1497 1502 1505 1509 1513 1516 1519 1523 1526 1529 1532 1535 1535 1538 1543 1546 1549 1552 1554 1557 1558 1560 1563 1565 1566 1567